sat.trackr.live / text

‹ back to catalog

STARLINK-32659

NORAD 62427 · 2024-249U

PAYLOAD ACTIVE UNKNOWN

§ Identity

Operator
Country
US
Launch date
2024-12-23
Launch site
AFETR
Launch vehicle
Mass (kg)
RCS (m²)

Purposes: comms

External: N2YO · Heavens-Above · Gunter

§ Orbital elements

Epoch: 2026-05-24T16:36:08.517600Z

Period
94.27 min
Inclination
42.9997°
Eccentricity
0.0001723
Mean motion
15.27602087 rev/d
Perigee alt
481.8 km
Apogee alt
484.2 km
Semi-major
6,861.1 km
B*
9.4486e-4
RAAN
245.1603°
Arg perigee
269.2292°
Mean anomaly
90.8362°
Rev number
7,943

§ Raw data

STARLINK-326591 62427U 24249U   26144.69176525  .00025847  00000+0  94486-3 0  99992 62427  42.9997 245.1603 0001723 269.2292  90.8362 15.27602087 79438

JSON: /api/v1/satellites/62427 · /tle

For live sub-satellite position, see the globe view (requires WebGL).

§ Visibility from observer

Set your observer location to see the next 7 days of passes ≥ 10°. The values pass through the URL so the page stays shareable.

No JS? Fill the form by hand. The geolocation button needs JavaScript.